カタログに戻る

STARLINK-31806

運用中通信VLEO
NORAD 59640·PAYLOAD·🇺🇸 United States

打ち上げ May 3, 2024 から Cape Canaveral Space Force Station

Loading…

次のパス (今後24時間)

TLE

最新Source: CelesTrak SupGP

元期: Sep 14, 2026, 22:09 UTC

1 59640C 24082K   26257.92340278 -.00059381  00000+0 -21506-2 0  2577
2 59640  42.9991 151.1738 0001322 269.0186  36.2242 15.27610574    14

AllMySatでSTARLINK-31806をリアルタイム追跡

Download on the App Store